Tracking 30918 objects as of 2-Jul-2025
HD Live streaming from Space Station
objects crossing your sky now

TITAN 3C TRANSTAGE DEB

Track TITAN 3C TRANSTAGE DEB now!
10-day predictions


NORAD ID: 47713
Int'l Code: 2021-015Q
Perigee: 556.8 km
Apogee: 17,596.7 km
Inclination: 26.9 °
Period: 318.5 minutes
Semi major axis: 15447 km
RCS: Unknown
Launch date: February 28, 2021
Source: United States (US)
Launch site: SRIHARIKOTA (SRI)

Note: This is SATELLITE DEBRIS
Your satellite tracking list
Your tracking list is empty




NASA's NSSDC Master Catalog

Two Line Element Set (TLE):
1 47713U 65108DS  25174.34331233  .00000008  00000-0  31629-4 0  9996
2 47713  26.8825 238.2634 5515360  75.3038 337.3128  4.52173514191060
Source of the keplerian elements: AFSPC